Weather History for Hibbing, MN

Change the Weather History Date:

Wednesday, August 7, 2013

  Actual Average Record
Temperature  
Mean Temperature 60 °F -  
Max Temperature 71 °F 78 °F 93 °F (1983)
Min Temperature 50 °F 53 °F 39 °F (1989)
Degree Days  
Heating Degree Days 4    
Growing Degree Days 10 (Base 50)    
Moisture  
Dew Point 50 °F    
Average Humidity 71    
Maximum Humidity 96    
Minimum Humidity 44    
Precipitation  
Precipitation 0.00 in - - ()
Sea Level Pressure  
Sea Level Pressure 29.94 in    
Wind  
Wind Speed 8 mph (NW)    
Max Wind Speed 18 mph    
Max Gust Speed 24 mph    
Visibility 10 miles    
Events      
Averages and records for this station are not official NWS values.
T = Trace of Precipitation, MM = Missing Value Source: NWS Daily Summary

Daily Weather History Graph

Daily Weather History Graph

Search for Another Location

Airport:

Trip Planner

Search our weather history database for the weather conditions in past years. The results will help you decide how hot, cold, wet, or windy it might be!

Date:

Astronomy

Aug. 07, 2013 Rise Set
Actual Time 5:57 AM CDT 8:35 PM CDT
Civil Twilight 5:22 AM CDT 9:10 PM CDT
Nautical Twilight 4:38 AM CDT 9:54 PM CDT
Astronomical Twilight 3:46 AM CDT 10:45 PM CDT
Moon 6:54 AM CDT (8/7) 8:33 PM CDT (8/7)
Length of Visible Light 15h 47m
Length of Day
14h 38m
New Moon, 1% of the Moon is Illuminated
Aug 7
New Moon
Aug 14
First Quarter
Aug 20
Full
Aug 28
Last Quarter
Sep 5
New

Hourly Weather History & Observations

Time (CDT) Temp. Dew Point Humidity Pressure Visibility Wind Dir Wind Speed Gust Speed Precip Events Conditions
12:53 AM 59.0 °F 55.0 °F 87% 29.83 in 10.0 mi North 8.1 mph - N/A   Mostly Cloudy
1:19 AM 59.0 °F 53.6 °F 82% 29.84 in 10.0 mi North 10.4 mph - N/A   Overcast
1:53 AM 57.0 °F 53.1 °F 87% 29.84 in 10.0 mi North 5.8 mph - N/A   Scattered Clouds
2:53 AM 57.0 °F 54.0 °F 89% 29.85 in 10.0 mi North 9.2 mph - N/A   Mostly Cloudy
3:40 AM 55.4 °F 51.8 °F 88% 29.86 in 10.0 mi NNW 6.9 mph - N/A   Scattered Clouds
3:53 AM 55.0 °F 52.0 °F 89% 29.87 in 10.0 mi NNW 10.4 mph - N/A   Partly Cloudy
4:10 AM 53.6 °F 51.8 °F 94% 29.87 in 10.0 mi NNW 9.2 mph - N/A   Partly Cloudy
4:53 AM 51.1 °F 48.9 °F 92% 29.89 in 10.0 mi NNW 6.9 mph - N/A   Clear
5:53 AM 50.0 °F 48.9 °F 96% 29.90 in 10.0 mi NNW 3.5 mph - N/A   Clear
6:53 AM 51.1 °F 48.0 °F 89% 29.93 in 10.0 mi Calm Calm - N/A   Clear
7:53 AM 57.0 °F 50.0 °F 77% 29.93 in 10.0 mi NNW 8.1 mph - N/A   Clear
8:53 AM 61.0 °F 50.0 °F 67% 29.94 in 10.0 mi NNW 9.2 mph - N/A   Clear
9:53 AM 63.0 °F 51.1 °F 65% 29.95 in 10.0 mi NW 10.4 mph - N/A   Clear
10:53 AM 64.9 °F 50.0 °F 58% 29.97 in 10.0 mi NW 13.8 mph - N/A   Clear
11:53 AM 66.9 °F 46.0 °F 47% 29.97 in 10.0 mi NW 18.4 mph 24.2 mph N/A   Clear
12:53 PM 69.1 °F 46.9 °F 45% 29.98 in 10.0 mi WNW 11.5 mph 17.3 mph N/A   Clear
1:53 PM 69.1 °F 48.0 °F 47% 29.99 in 10.0 mi NNW 12.7 mph 19.6 mph N/A   Partly Cloudy
2:53 PM 71.1 °F 48.0 °F 44% 29.99 in 10.0 mi WNW 12.7 mph 19.6 mph N/A   Scattered Clouds
3:53 PM 66.9 °F 48.0 °F 51% 29.99 in 10.0 mi NW 13.8 mph - N/A   Overcast
4:53 PM 70.0 °F 48.9 °F 47% 30.00 in 10.0 mi West 9.2 mph 16.1 mph N/A   Mostly Cloudy
5:53 PM 66.0 °F 48.9 °F 54% 30.00 in 10.0 mi NNW 10.4 mph - N/A   Mostly Cloudy
6:53 PM 66.0 °F 48.0 °F 52% 30.00 in 10.0 mi NW 9.2 mph - N/A   Clear
7:53 PM 64.0 °F 48.0 °F 56% 30.00 in 10.0 mi WNW 4.6 mph - N/A   Clear
8:53 PM 54.0 °F 48.9 °F 83% 30.01 in 10.0 mi Calm Calm - N/A   Partly Cloudy
9:53 PM 55.9 °F 48.9 °F 77% 30.02 in 10.0 mi Calm Calm - N/A   Overcast
10:53 PM 57.0 °F 50.0 °F 77% 30.01 in 10.0 mi Calm Calm - N/A   Overcast
11:53 PM 55.9 °F 51.1 °F 84% 30.02 in 10.0 mi Calm Calm - N/A   Overcast